Weather in Bubnovo

Russia / Smolensk Oblast     54°42′05″N   32°14′40″E
В апреле 2022 года жителям России запретили посещать сайт meteo.paraplan.net по решению Генеральной прокуратуры. Аудитория сайта уменьшилась в 10 раз. Владельцы сайта не видят смысла в поддержке погодного сервера в таких условиях. Сайт будет закрыт в октябре.
temp.,
°C
wind,
m/s
gust,
m/s
humid.,
%
clouds,
%
prec.,
mm/h
press.,
hPa
HPBL,
m
30 september, fri
fri3000:00+11s41177100 0.1 1009390
03:00+9sse3887100 1.1 1010302
06:00+10s3894100 3.4 1010327
09:00+10s249896 4.8 1011204
12:00+12wsw2388100 0.1 1013520
15:00+13wnw2281100 0.1 1014516
18:00+13w227697 0.0 101520
21:00+10sw1185100 0.0 101610
1 october, sat
sat100:00+9ene1189100 0.0 101610
03:00+9ene2291100 0.0 101626
06:00+9e3693100 0.0 1015146
09:00+10e4997100 0.3 1013339
12:00+13sse51096100 1.9 1010524
15:00+15ssw6118787 2.7 1007839
18:00+12sw71193100 0.5 1007618
21:00+8wsw81293100 0.5 1008864
2 october, sun
sun200:00+8w61292100 0.1 1010739
03:00+8w4793100 0.2 1010467
06:00+7wnw4794100 0.1 1010406
09:00+7nw3592100 0.1 1010360
12:00+9nnw2282100 0.0 1009600
15:00+10nne2377100 0.2 1008616
18:00+9nne2587100 0.1 1008261
21:00+8nne3789100 0.1 1007359
3 october, mon
mon300:00+8n4890100 0.0 1005448
03:00+7nnw5993100 0.5 1004495
06:00+7nnw61094100 1.7 1002586
09:00+6nnw71091100 2.4 1001991
12:00+6nw6991100 0.2 10021037
15:00+5wnw71095100 0.4 1002921
18:00+6wnw71290100 0.3 1003990
21:00+7w51184100 0.3 1003434
4 october, tue
tue400:00+5wsw4989100 0.0 1004228
03:00+5sw4993100 0.0 1004254
06:00+6sw389899 0.1 1005247
09:00+7sw4695100 0.1 1007299
12:00+8sw2492100 0.6 1008315
15:00+9ssw238578 0.9 1010343
18:00+8ssw358890 0.1 101198
21:00+6sw349381 0.1 101381